EUTELSAT 10B

导读

EUTELSAT 10B由欧洲卫星运营商Eutelsat发射,于2022年11月23日顺利升空,定点于东经10°轨道位置。作为新一代高容量通信卫星,它接替上一代卫星服务,搭载Ku、C波段载荷,覆盖欧洲、非洲、中东及亚洲部分区域,可提供宽带连接、视频传输、数据通信等服务,增强了欧卫通网络的通信容量与可靠性,为跨区域互联提供坚实支撑。

Basic Information
目录编号:
54259
目录名称:
EUTELSAT 10B
国际标识:
2022-157A
轨道中心:
EARTH
卫星名称:
EUTELSAT 10B
卫星全名:
--
卫星状态:
在轨 (已飞行1299 天)
发射日期:
2022-11-23 UTC
国别 :
(EUTE)
星等 :
--
Orbit Information
数据来源 国际轨道数据 AOE轨道数据
星历时间 2026-06-14T05:45:22+0800
12小时前
查看轨道信息
2026-06-14T12:00:00+0800
6小时前
查看轨道信息
半长轴 42165.906km 42164.953km
偏心率 0.0001354 0.0001406
轨道倾角 0.063° 0.063°
近地点辐角 9.235° 6.517°
升交点赤经 100.910° 97.191°
平近点角 128.428° 228.782°
近地点 35782.059km 35780.887km
远地点 35793.479km 35792.745km
周期 1436.157分钟 1436.108分钟
每日圈数 1.002676 1.00271
Detailed Information
使用方式:
暂无
2D Orbit Map
3D Orbit Map
Orbit Altitude Analysis Chart
Orbit Inclination Analysis Chart
Orbit Comprehensive Analysis Chart
View Comprehensive Chart